This is the latest recevied weather packets stored in our database for station/object NEWPRT. If no packets are shown the sender has not sent any weather packets the latest 10 day(s).
| Time | Temp. | Humidity | Pressure | Rain* | Wind** | Luminosity | Snow |
|---|---|---|---|---|---|---|---|
| 1777596253 | - | 67% | 1017.8 hPa | 0 mm | - | - | - |
| 1777595932 | - | 66% | 1017.8 hPa | 0 mm | - | - | - |
| 1777595607 | - | 67% | 1017.9 hPa | 0 mm | - | - | - |
| 1777595284 | - | 68% | 1017.9 hPa | 0 mm | - | - | - |
| 1777594961 | - | 68% | 1018 hPa | 0 mm | - | - | - |
| 1777594638 | - | 66% | 1018.1 hPa | 0 mm | - | - | - |
| 1777594315 | - | 66% | 1018.4 hPa | 0 mm | - | - | - |
| 1777593992 | - | 64% | 1018.4 hPa | 0 mm | - | - | - |
| 1777593670 | - | 67% | 1018.5 hPa | 0 mm | - | - | - |
| 1777593346 | - | 62% | 1018.4 hPa | 0 mm | - | - | - |
| 1777593023 | - | 66% | 1018.3 hPa | 0 mm | - | - | - |
| 1777592700 | - | 64% | 1018.5 hPa | 0 mm | - | - | - |
| 1777592377 | - | 65% | 1018.4 hPa | 0 mm | - | - | - |
| 1777592054 | - | 64% | 1018.6 hPa | 0 mm | - | - | - |
| 1777591731 | - | 62% | 1018.6 hPa | 0 mm | - | - | - |
| 1777591411 | - | 62% | 1018.7 hPa | 0 mm | - | - | - |
| 1777591085 | - | 63% | 1018.8 hPa | 0 mm | - | - | - |
| 1777590763 | - | 63% | 1018.5 hPa | 0 mm | - | - | - |
| 1777590439 | - | 62% | 1018.6 hPa | 0 mm | - | - | - |
| 1777590116 | - | 60% | 1018.9 hPa | 0 mm | - | - | - |
| 1777589793 | - | 61% | 1018.8 hPa | 0 mm | - | - | - |
| 1777589472 | - | 62% | 1019 hPa | 0 mm | - | - | - |
| 1777589147 | - | 62% | 1019.1 hPa | 0 mm | - | - | - |
| 1777588824 | - | 63% | 1019.2 hPa | 0 mm | - | - | - |
| 1777588501 | - | 63% | 1019.2 hPa | 0 mm | - | - | - |
* Rain latest hour (hover to see other rain measurements)
** Current wind speed in m/s (hover to see current wind gust speed)